This is the latest recevied weather packets stored in our database for station/object DM3FAM-10. If no packets are shown the sender has not sent any weather packets the latest 10 day(s).
| Time | Temp. | Humidity | Pressure | Rain* | Wind** | Luminosity | Snow |
|---|---|---|---|---|---|---|---|
| 1777568194 | 16.67° C | 21% | 972.5 hPa | - | - | - | - |
| 1777567294 | 16.67° C | 24% | 972.5 hPa | - | - | - | - |
| 1777566394 | 17.78° C | 19% | 972.4 hPa | - | - | - | - |
| 1777565494 | 20° C | 21% | 972.3 hPa | - | - | - | - |
| 1777564594 | 21.67° C | 19% | 972.1 hPa | - | - | - | - |
| 1777563694 | 20.56° C | 20% | 972.2 hPa | - | - | - | - |
| 1777562793 | 20.56° C | 22% | 972 hPa | - | - | - | - |
| 1777561894 | 22.78° C | 18% | 972.1 hPa | - | - | - | - |
| 1777560993 | 27.78° C | 17% | 971.9 hPa | - | - | - | - |
| 1777560093 | 23.33° C | 16% | 972 hPa | - | - | - | - |
| 1777559193 | 23.33° C | 16% | 972.1 hPa | - | - | - | - |
| 1777558293 | 22.78° C | 15% | 972.2 hPa | - | - | - | - |
| 1777557393 | 26.11° C | 16% | 972.1 hPa | - | - | - | - |
| 1777556493 | 30° C | 12% | 972.1 hPa | - | - | - | - |
| 1777555593 | 29.44° C | 15% | 972.1 hPa | - | - | - | - |
| 1777554693 | 28.33° C | 15% | 972.4 hPa | - | - | - | - |
| 1777553793 | 26.67° C | 15% | 972.5 hPa | - | - | - | - |
| 1777552893 | 26.11° C | 14% | 972.6 hPa | - | - | - | - |
| 1777551993 | 28.33° C | 15% | 972.6 hPa | - | - | - | - |
| 1777551093 | 28.89° C | 15% | 972.7 hPa | - | - | - | - |
| 1777550193 | 30.56° C | 15% | 972.8 hPa | - | - | - | - |
| 1777549293 | 28.33° C | 17% | 972.9 hPa | - | - | - | - |
| 1777548392 | 20.56° C | 23% | 972.8 hPa | - | - | - | - |
| 1777547493 | 20° C | 27% | 973 hPa | - | - | - | - |
| 1777546592 | 19.44° C | 23% | 973.2 hPa | - | - | - | - |
* Rain since midnight (hover to see other rain measurements)
** Current wind speed in m/s (hover to see current wind gust speed)